Location: Baix
(44.7118°N, 4.7648°E)
Time: 11:23:34
(UTC+00:00)

Tiros 1 despin weight - Pass Details

Date: 01 December 2020
Orbit: 594 x 641 km, 48.2° (Epoch: 17 January)

Event Time Altitude Azimuth Distance (km) Brightness Sun altitude
Rises 16:47:39 0° 290° (WNW) 2,944 ? -8.1°
Reaches altitude 10° 16:50:08 10° 281° (WNW) 2,029 ? -8.5°
Maximum altitude 16:54:22 34° 217° (SW) 1,037 ? -9.2°
Drops below altitude 10° 16:58:33 10° 152° (SSE) 2,003 ? -9.9°
Sets 17:01:00 0° 143° (SE) 2,900 ? -10.3°
